Location: �terpigny
(49.8910°N, 2.9249°E)
Time: 03:38:48
(UTC+00:00)

Cosmos 614 Rocket - Pass Details

Date: 31 May 2022
Orbit: 732 x 764 km, 74.1° (Epoch: 05 July)

Event Time Altitude Azimuth Distance (km) Brightness Sun altitude
Rises 01:41:51 0° 330° (NNW) 3,222 7.7 -13.8°
Reaches altitude 10° 01:44:20 10° 323° (NW) 2,297 6.8 -13.6°
Maximum altitude 01:49:09 39° 256° (WSW) 1,129 4.6 -13.2°
Enters shadow 01:52:35 18° 196° (SSW) 1,817 5.3 -12.9°
